Wind_Speed
16 12 10 10 13 17 20 24 28 30 32 35 39 45 50 53 53 57 61 58 53 53 51 51 53 53 55 54 56 58 64 64 71 74 75 80 85 84 74 67 52 31 13
19 15 13 11 13 16 20 23 28 31 32 34 39 43 48 53 52 57 60 56 49 55 50 51 54 55 55 55 56 61 65 69 72 74 80 83 87 83 77 63 40 18 11
24 19 16 14 15 17 20 23 28 31 32 34 37 42 47 53 52 58 62 57 56 60 54 53 56 57 57 58 62 66 67 71 76 76 86 87 92 85 72 46 28 8 15
28 23 19 17 17 18 21 24 27 30 32 33 36 41 46 51 52 58 60 56 60 62 58 55 55 57 61 62 66 66 70 72 77 78 91 92 93 83 67 39 20 12 15
31 26 22 21 20 19 22 25 26 29 31 32 34 39 44 49 52 57 62 58 62 62 59 55 56 60 63 66 67 68 71 74 77 83 95 96 88 81 61 36 16 19 11
33 29 25 23 23 22 23 26 26 28 31 33 34 38 43 48 51 56 61 57 64 63 61 59 58 61 65 67 70 70 72 76 79 87 96 95 85 78 53 31 10 21 13
36 32 28 26 24 25 23 26 26 28 30 33 35 37 42 47 49 55 59 56 66 64 63 59 61 62 65 67 69 73 77 78 82 86 98 95 85 76 51 28 12 18 11
37 34 32 29 26 27 25 26 26 27 31 32 35 36 41 46 49 53 58 59 64 65 65 60 62 62 65 69 72 74 78 78 83 88 99 94 84 75 51 28 15 16 5
38 36 34 31 29 28 27 26 28 27 31 31 34 35 39 45 47 50 56 58 63 64 64 63 61 64 67 70 72 74 79 80 83 87 99 95 86 76 52 28 15 12 4
41 37 35 34 31 29 29 27 30 28 30 31 33 34 37 43 46 50 53 57 60 63 66 64 63 63 66 69 73 75 78 80 83 90 97 95 91 82 53 30 7 9 6
40 38 38 36 33 31 31 30 31 31 29 31 33 34 36 42 45 50 51 55 59 62 65 65 62 63 64 68 72 74 75 80 82 88 95 97 90 84 58 33 7 3 0
43 42 39 37 35 33 33 31 33 33 29 30 34 34 35 40 45 48 52 52 55 60 63 64 62 60 63 68 71 74 74 80 82 84 92 99 89 84 67 40 16 2 3
49 48 43 39 37 35 35 32 33 35 30 30 33 36 35 40 45 48 51 49 51 59 60 62 62 59 61 66 69 74 74 76 80 83 89 96 93 84 76 49 28 5 5
49 48 43 41 39 38 37 35 34 36 32 31 33 36 35 39 44 49 50 49 47 58 58 57 60 60 60 65 66 73 75 74 78 81 85 92 96 85 80 61 40 21 5
47 47 44 42 40 38 37 36 36 37 33 34 34 37 36 38 42 47 48 50 42 55 54 57 62 59 58 62 63 69 75 73 77 80 82 88 93 88 81 74 53 35 20
46 44 42 42 41 37 36 35 37 38 35 35 35 36 37 39 42 46 47 50 38 51 54 56 61 59 57 59 63 66 73 75 73 78 81 81 87 93 81 75 68 47 34
45 44 42 41 41 37 36 34 36 37 35 37 37 36 38 40 42 46 49 49 40 46 50 55 56 56 55 58 62 66 72 71 72 72 76 79 81 87 89 75 69 66 47
47 43 42 42 40 38 35 35 36 35 36 38 38 37 37 41 43 47 49 47 41 43 44 51 50 54 52 56 60 60 69 73 72 71 74 76 76 80 85 80 71 67 63
46 45 44 42 41 37 36 37 35 38 38 37 39 37 36 42 44 47 47 46 43 40 41 50 46 50 52 58 58 58 64 68 70 72 70 73 74 75 78 81 77 70 65
44 43 43 41 40 36 37 37 37 39 37 35 37 38 37 42 45 45 45 44 39 33 42 52 42 48 49 53 56 55 59 66 67 67 69 69 73 72 71 74 75 73 70
41 40 42 41 40 38 38 36 38 37 36 34 36 39 40 43 47 41 41 41 37 33 39 48 49 46 46 53 51 49 55 63 67 64 67 67 68 72 69 69 70 71 71
42 43 44 43 41 40 38 37 38 36 34 33 35 38 39 42 43 39 40 39 39 35 41 46 48 53 44 47 50 45 46 55 63 59 64 66 66 68 68 66 66 69 70
49 46 44 44 43 41 38 38 38 37 33 29 34 36 34 32 35 39 41 38 39 36 42 47 50 48 43 45 43 43 49 51 54 56 59 64 67 72 65 61 61 63 67
52 49 47 45 43 43 41 42 40 36 33 27 28 33 34 34 37 39 38 39 38 36 39 46 47 47 45 43 43 38 42 49 52 55 61 65 65 69 68 62 57 58 63
52 51 52 50 48 47 44 43 40 38 34 33 31 31 34 33 36 41 43 45 42 39 39 44 47 44 42 47 40 33 38 46 51 50 59 68 64 59 66 68 59 55 57
58 54 54 53 49 49 44 42 37 34 33 35 33 31 33 43 44 41 50 49 44 39 39 47 41 42 50 48 50 39 41 46 47 50 53 66 67 64 57 63 64 58 55
Wind_Direction
240 254 272 299 320 329 337 346 344 346 349 354 356 2 2 3 3 2 4 5 1 352 351 344 347 347 343 341 343 345 346 345 344 341 342 343 343 343 343 340 333 321 256
241 249 264 286 304 318 326 337 338 339 347 348 353 359 358 0 1 2 5 5 1 357 355 351 353 350 348 348 347 349 350 348 344 348 347 347 345 346 345 340 329 311 227
243 248 260 274 288 304 317 327 333 334 340 345 350 353 356 358 0 2 4 2 2 359 358 355 356 353 353 350 350 352 351 348 348 349 351 350 348 346 348 346 329 285 175
246 250 257 268 281 297 309 318 326 329 334 343 346 349 354 357 359 0 1 2 3 360 359 358 356 355 355 354 355 354 353 348 351 351 354 352 348 349 350 350 340 187 187
242 248 256 266 277 291 303 311 321 325 330 338 342 346 351 354 356 359 0 2 1 358 357 357 355 356 357 358 357 354 352 352 353 356 358 354 352 352 351 354 356 167 191
242 245 252 262 274 286 296 306 315 322 326 333 339 344 349 351 355 357 360 3 3 357 357 358 355 356 359 360 359 356 355 357 358 358 359 354 354 356 357 2 39 172 189
241 245 250 258 269 280 290 300 311 319 322 328 336 342 346 349 353 356 359 1 4 358 356 357 356 357 359 1 1 359 359 360 0 0 0 358 359 360 3 12 121 166 165
242 245 249 255 264 274 284 294 306 313 317 325 331 339 343 346 352 354 358 359 2 358 356 356 356 358 1 2 1 1 1 3 4 3 2 1 4 4 6 20 143 166 161
242 246 250 256 262 270 280 288 298 305 312 321 327 335 340 344 350 352 357 360 0 360 355 356 355 358 3 4 2 2 2 3 6 5 3 5 9 7 9 22 146 158 132
242 245 250 253 258 266 275 282 291 299 308 315 321 329 337 342 346 351 355 359 359 358 354 356 355 358 4 4 3 3 3 5 7 8 5 7 10 10 10 20 107 164 195
242 245 248 251 255 262 270 279 286 296 303 310 316 324 332 338 344 348 352 357 0 360 355 355 353 357 3 4 2 4 4 7 8 9 9 9 7 10 11 15 34 153 91
236 241 247 253 258 262 267 274 281 290 299 305 310 318 328 334 341 344 350 357 357 0 356 355 352 357 2 3 3 4 6 8 10 9 10 11 11 9 12 13 13 198 238
238 244 247 250 255 260 264 270 276 285 293 299 305 312 323 330 338 343 347 352 357 1 356 352 351 355 360 2 4 6 8 10 10 12 11 12 12 7 12 15 15 338 221
238 241 245 249 253 258 263 267 272 281 289 295 300 307 317 325 335 340 344 347 353 360 360 355 349 353 358 0 3 7 8 10 12 14 13 13 14 11 9 18 18 10 284
239 242 244 248 251 255 260 264 268 277 285 290 297 303 312 322 331 336 337 342 350 1 357 356 346 349 356 360 4 6 6 9 12 14 14 14 13 15 12 13 21 17 2
239 242 245 249 252 256 258 260 267 275 281 287 295 300 309 318 328 331 333 339 342 0 2 359 346 347 353 357 1 2 4 9 11 14 14 15 14 15 15 14 19 24 19
241 243 245 249 251 252 253 257 262 272 280 286 292 300 307 316 324 326 330 335 338 353 3 5 351 346 352 356 358 5 6 9 11 13 15 15 16 15 19 17 19 23 24
240 245 247 248 251 250 247 253 261 270 276 283 290 299 307 313 321 323 330 330 331 348 359 3 352 346 352 353 356 4 6 7 13 12 14 14 16 17 20 22 21 23 27
238 244 245 248 248 248 249 254 262 267 275 283 289 300 305 311 319 323 331 327 328 350 360 1 357 354 354 354 355 1 4 7 9 15 12 14 14 17 19 21 26 27 29
240 243 244 244 244 243 248 255 262 268 277 283 291 298 305 310 319 326 326 322 325 331 352 355 353 352 352 356 357 2 5 6 7 11 12 12 12 13 16 18 25 33 33
242 242 242 241 240 240 248 255 262 271 278 284 290 296 306 311 318 321 320 322 321 320 337 333 354 353 350 355 356 360 3 5 5 10 11 11 11 11 12 16 19 23 32
242 241 241 241 242 244 250 259 266 271 277 284 288 298 316 317 315 317 318 316 318 313 309 320 345 350 349 355 353 356 359 2 3 12 13 12 9 8 11 12 15 17 25
238 240 239 238 242 247 250 256 263 271 275 287 299 306 310 310 309 314 317 309 311 307 308 319 334 340 346 348 354 357 3 2 5 6 10 10 11 8 7 11 13 14 16
241 242 242 242 245 249 254 259 267 269 276 282 285 291 297 306 303 308 309 308 299 296 301 312 325 333 339 342 348 348 357 2 359 1 3 3 3 6 7 8 12 16 17
241 245 248 247 248 250 254 261 265 269 277 285 285 286 287 306 305 306 312 312 297 289 297 309 315 328 338 340 338 342 346 353 358 357 357 360 0 1 5 7 6 14 18
242 242 245 247 249 254 257 259 265 276 280 286 276 286 305 308 297 303 305 309 294 287 290 307 315 318 323 331 337 335 339 345 350 353 355 354 355 357 355 357 2 1 9
Height
11004 11004 11004 11003 11003 11002 10999 10997 10994 10990 10987 10981 10975 10968 10961 10955 10946 10938 10928 10914 10907 10902 10895 10884 10870 10858 10846 10835 10824 10812 10799 10785 10767 10748 10730 10710 10689 10669 10651 10636 10620 10611 10610
11002 11001 11002 11002 11001 11001 10998 10996 10994 10990 10986 10981 10974 10968 10962 10955 10947 10940 10929 10919 10912 10903 10891 10880 10867 10855 10844 10832 10821 10807 10791 10773 10757 10740 10720 10698 10676 10656 10639 10622 10607 10602 10604
10999 10999 10999 11000 11000 10999 10997 10995 10993 10989 10985 10981 10974 10968 10962 10955 10946 10936 10928 10918 10910 10899 10888 10875 10863 10852 10841 10828 10814 10798 10781 10767 10750 10732 10713 10688 10664 10643 10629 10613 10599 10595 10600
10995 10996 10997 10998 10997 10997 10995 10993 10992 10988 10984 10979 10974 10968 10961 10954 10945 10938 10929 10919 10908 10894 10882 10871 10861 10851 10838 10823 10807 10793 10779 10763 10745 10726 10703 10678 10655 10633 10616 10603 10593 10593 10599
10990 10992 10994 10995 10995 10994 10992 10990 10990 10987 10983 10979 10974 10968 10961 10955 10946 10939 10928 10917 10906 10893 10881 10871 10860 10849 10834 10819 10805 10790 10777 10760 10740 10718 10695 10670 10646 10625 10607 10596 10591 10594 10598
10986 10988 10989 10991 10991 10990 10989 10987 10987 10985 10981 10977 10973 10967 10960 10954 10946 10937 10927 10915 10903 10891 10880 10869 10858 10846 10832 10818 10803 10790 10773 10754 10733 10714 10691 10665 10644 10625 10607 10593 10590 10596 10600
10981 10983 10985 10987 10988 10987 10986 10984 10984 10982 10979 10975 10971 10966 10959 10953 10944 10935 10925 10914 10902 10891 10880 10868 10857 10845 10831 10817 10803 10786 10769 10750 10732 10711 10689 10663 10641 10621 10607 10595 10593 10598 10602
10976 10979 10981 10983 10983 10983 10982 10981 10981 10979 10976 10973 10969 10964 10957 10951 10942 10933 10924 10914 10903 10891 10879 10867 10856 10843 10829 10814 10800 10785 10769 10750 10733 10712 10689 10665 10643 10624 10609 10600 10597 10601 10604
10970 10974 10976 10978 10979 10979 10979 10978 10977 10976 10973 10969 10966 10962 10956 10949 10941 10933 10924 10913 10903 10890 10878 10866 10855 10843 10828 10814 10801 10787 10770 10751 10733 10712 10690 10667 10646 10628 10614 10606 10604 10605 10607
10964 10968 10971 10972 10974 10974 10974 10974 10972 10972 10969 10966 10962 10959 10954 10948 10940 10932 10923 10913 10903 10890 10877 10866 10854 10843 10829 10817 10803 10788 10771 10754 10735 10715 10693 10670 10649 10634 10619 10611 10609 10609 10610
10959 10962 10964 10966 10968 10968 10968 10968 10967 10967 10965 10961 10958 10955 10951 10946 10939 10931 10922 10913 10903 10890 10877 10865 10855 10845 10832 10820 10806 10792 10775 10757 10737 10719 10699 10674 10653 10641 10626 10616 10613 10612 10613
10950 10952 10956 10960 10962 10963 10963 10963 10961 10961 10960 10957 10953 10951 10947 10942 10935 10928 10920 10911 10902 10891 10878 10867 10856 10845 10833 10821 10808 10793 10776 10759 10742 10723 10704 10682 10662 10646 10634 10622 10616 10615 10614
10941 10945 10949 10953 10955 10956 10957 10957 10955 10954 10955 10952 10949 10945 10942 10938 10932 10925 10918 10910 10901 10890 10879 10868 10857 10845 10834 10822 10809 10793 10778 10763 10748 10730 10711 10692 10673 10656 10642 10629 10620 10617 10616
10931 10936 10941 10944 10947 10949 10950 10950 10949 10948 10948 10946 10944 10941 10938 10934 10928 10922 10915 10908 10899 10890 10879 10867 10856 10845 10835 10824 10811 10797 10785 10770 10753 10737 10720 10701 10683 10665 10650 10636 10625 10620 10619
10923 10928 10932 10935 10938 10941 10943 10944 10943 10942 10941 10939 10938 10935 10933 10930 10924 10918 10911 10905 10898 10889 10878 10868 10857 10847 10837 10825 10814 10802 10790 10775 10759 10743 10728 10711 10694 10675 10658 10644 10633 10624 10620
10915 10919 10923 10926 10929 10932 10934 10935 10936 10935 10934 10932 10931 10930 10927 10924 10919 10913 10906 10901 10895 10887 10879 10867 10857 10849 10839 10828 10819 10807 10793 10780 10765 10752 10738 10723 10706 10687 10669 10655 10642 10632 10625
10904 10909 10914 10917 10921 10924 10925 10927 10928 10928 10926 10925 10924 10924 10921 10918 10913 10908 10902 10897 10892 10886 10876 10867 10857 10850 10841 10832 10823 10810 10797 10784 10771 10759 10746 10732 10718 10701 10683 10667 10654 10643 10633
10895 10899 10904 10907 10911 10915 10917 10918 10920 10919 10919 10918 10916 10917 10915 10911 10908 10903 10898 10891 10887 10882 10873 10866 10859 10851 10841 10833 10825 10813 10801 10789 10777 10764 10753 10741 10728 10714 10699 10684 10669 10654 10643
10885 10888 10893 10897 10901 10906 10908 10909 10911 10910 10911 10911 10909 10909 10908 10904 10901 10898 10893 10887 10883 10879 10871 10865 10858 10849 10841 10834 10826 10816 10805 10793 10783 10770 10759 10750 10738 10725 10713 10699 10684 10670 10658
10874 10878 10882 10888 10892 10896 10898 10900 10902 10902 10903 10904 10903 10902 10900 10898 10896 10892 10888 10882 10878 10873 10868 10864 10855 10847 10841 10832 10826 10818 10807 10797 10786 10776 10765 10755 10746 10736 10726 10714 10700 10686 10675
10863 10867 10872 10878 10882 10885 10889 10891 10893 10893 10895 10896 10895 10893 10892 10892 10890 10886 10883 10878 10873 10869 10864 10860 10853 10845 10839 10833 10825 10820 10811 10802 10791 10780 10772 10761 10753 10745 10735 10725 10715 10702 10689
10852 10856 10861 10867 10872 10875 10878 10882 10882 10883 10885 10886 10885 10884 10884 10883 10882 10880 10877 10872 10868 10864 10859 10855 10848 10843 10836 10831 10825 10818 10812 10804 10796 10786 10776 10768 10759 10751 10743 10732 10723 10716 10704
10840 10845 10851 10856 10859 10864 10868 10870 10870 10872 10875 10875 10875 10876 10875 10873 10871 10870 10868 10865 10861 10859 10854 10850 10844 10837 10832 10829 10823 10817 10811 10803 10796 10789 10780 10773 10765 10757 10747 10740 10731 10723 10716
10829 10834 10840 10845 10849 10851 10855 10857 10860 10862 10864 10865 10865 10864 10863 10861 10860 10859 10858 10856 10853 10851 10848 10844 10839 10832 10827 10823 10819 10814 10808 10803 10796 10789 10783 10776 10768 10761 10754 10745 10738 10731 10723
10817 10823 10827 10833 10836 10839 10844 10847 10849 10851 10852 10854 10853 10851 10850 10850 10849 10848 10848 10847 10845 10842 10840 10837 10833 10827 10821 10817 10812 10808 10805 10800 10795 10788 10782 10775 10769 10763 10758 10751 10742 10735 10728
10802 10809 10813 10818 10824 10828 10834 10837 10838 10838 10839 10839 10839 10838 10837 10839 10837 10836 10836 10836 10834 10833 10830 10828 10825 10820 10815 10811 10807 10803 10798 10795 10791 10787 10780 10775 10768 10762 10758 10753 10748 10740 10732